Location: Asheville, NC
(35.6000°N, 82.5500°W)
Time: 18:56:26
(UTC-04:00)

Vanguard 1 - Pass Details

Date: 09 December 2017
Orbit: 650 x 3833 km, 34.2° (Epoch: 23 April)

Event Time Altitude Azimuth Distance (km) Brightness Sun altitude
Rises 13:45:45 0° 271° (W) 6,711 14.6 28.3°
Reaches altitude 10° 13:50:55 10° 271° (W) 5,202 14.1 27.9°
Maximum altitude 14:04:20 82° 186° (S) 1,530 11.6 26.8°
Drops below altitude 10° 14:11:20 10° 99° (E) 2,857 12.3 26.1°
Sets 14:13:23 0° 99° (E) 3,585 12.8 25.9°
